N8IFU Weather Reports


Display with metric or nautical units.
time (UTC)temp
F
wind
direction
speed
MPH
gust
MPH
rain 1hr
in
rain 24hr
in
rain mn
in
humidity
%
barometer
mb
20260505090059 56 236 3.0 11.0 0.00 0.11 0.07 87 1001.0
20260505084551 56 233 4.0 9.0 0.00 0.11 0.07 88 1001.0
20260505083056 56 259 2.0 8.0 0.00 0.11 0.07 88 1000.6
20260505081548 56 245 1.0 5.0 0.00 0.11 0.07 89 1000.3
20260505080047 56 267 2.0 7.0 0.00 0.11 0.07 89 1000.4
20260505074554 56 265 1.0 6.0 0.00 0.11 0.07 88 1000.2
20260505073056 56 255 0.0 5.0 0.00 0.11 0.07 87 999.7
20260505071547 57 248 2.0 6.0 0.00 0.11 0.07 86 999.7
20260505070048 57 261 1.0 5.0 0.00 0.11 0.07 86 999.3
20260505064556 57 129 1.0 9.0 0.00 0.11 0.07 85 999.4
20260505063050 57 258 3.0 10.0 0.00 0.11 0.07 85 1000.2
20260505061550 57 266 3.0 9.0 0.00 0.11 0.07 84 1000.4
20260505060053 58 217 4.0 8.0 0.00 0.11 0.07 84 1000.2
20260505054553 57 257 2.0 6.0 0.01 0.11 0.07 85 1000.0
20260505053105 57 0 1.0 9.0 0.05 0.11 0.07 85 999.4
20260505051544 56 82 1.0 6.0 0.07 0.11 0.07 87 999.9
20260505041546 65 258 4.0 13.0 0.00 0.04 0.00 69 1000.5
20260505040048 65 329 3.0 15.0 0.00 0.04 0.00 69 1000.1
20260505034545 64 230 3.0 14.0 0.00 0.04 0.04 70 999.7
20260505033102 64 229 2.0 11.0 0.00 0.04 0.04 71 999.6
20260505031545 63 243 2.0 9.0 0.00 0.04 0.04 73 999.7
20260505030048 62 240 1.0 6.0 0.00 0.04 0.04 74 999.5
20260505024544 62 0 2.0 5.0 0.00 0.04 0.04 75 1000.0
20260505023056 61 27 0.0 3.0 0.00 0.04 0.04 76 1000.0
20260505021613 61 276 0.0 8.0 0.00 0.04 0.04 78 1000.1
20260505020053 60 112 2.0 7.0 0.02 0.04 0.04 81 999.9
20260505014549 59 259 0.0 5.0 0.04 0.04 0.04 83 999.9
20260505013046 59 0 1.0 6.0 0.04 0.04 0.04 85 999.8
20260505011559 60 0 0.0 2.0 0.04 0.04 0.04 82 999.6
20260505010057 61 214 0.0 4.0 0.02 0.02 0.02 78 999.7
20260505004554 61 239 2.0 7.0 0.00 0.00 0.00 77 999.3
20260505003050 62 248 2.0 9.0 0.00 0.00 0.00 77 999.2
20260505001549 61 280 3.0 10.0 0.00 0.00 0.00 77 998.9
20260505000050 62 275 2.0 11.0 0.00 0.00 0.00 74 998.9
20260504234610 63 130 2.0 10.0 0.00 0.00 0.00 70 999.7
20260504233041 66 291 4.0 28.0 0.00 0.00 0.00 59 999.1
20260504231555 73 239 2.0 10.0 0.00 0.00 0.00 48 999.0
20260504230049 74 342 2.0 10.0 0.00 0.00 0.00 47 998.8
20260504224550 75 110 3.0 8.0 0.00 0.00 0.00 46 998.7
20260504223047 76 238 3.0 11.0 0.00 0.00 0.00 46 998.7
20260504221549 74 297 4.0 10.0 0.00 0.00 0.00 45 999.1
20260504220055 74 263 5.0 13.0 0.00 0.00 0.00 45 999.3
20260504214551 74 187 4.0 10.0 0.00 0.00 0.00 44 999.4
20260504213100 74 252 6.0 15.0 0.00 0.00 0.00 43 999.5
20260504211547 74 76 3.0 18.0 0.00 0.00 0.00 41 999.7
20260504210056 75 255 6.0 16.0 0.00 0.00 0.00 38 1000.1
20260504204625 75 248 4.0 15.0 0.00 0.00 0.00 37 1000.0
20260504203043 75 240 4.0 14.0 0.00 0.00 0.00 39 1000.1
20260504201549 75 302 5.0 15.0 0.00 0.00 0.00 38 1000.3
20260504200054 75 70 4.0 17.0 0.00 0.00 0.00 36 1000.3
20260504194552 75 268 4.0 14.0 0.00 0.00 0.00 36 1000.6
20260504193047 75 266 4.0 11.0 0.00 0.00 0.00 36 1000.5
20260504191545 75 270 5.0 16.0 0.00 0.00 0.00 33 1000.6
20260504190056 74 92 5.0 16.0 0.00 0.00 0.00 31 1000.9
20260504184603 74 245 8.0 18.0 0.00 0.00 0.00 30 1001.0
20260504183057 74 259 5.0 19.0 0.00 0.00 0.00 34 1001.2
20260504181550 74 87 4.0 12.0 0.00 0.00 0.00 40 1001.3
20260504180051 73 248 5.0 16.0 0.00 0.00 0.00 39 1001.3
20260504174552 73 232 5.0 12.0 0.00 0.00 0.00 41 1001.6
20260504173049 72 243 7.0 18.0 0.00 0.00 0.00 41 1001.9
20260504171553 72 110 4.0 12.0 0.00 0.00 0.00 46 1002.3